Weather History for KFNT - August, 2014

Change the Weather History Date:

Saturday, August 30, 2014

  Actual Average Record
Temperature  
Mean Temperature 78 °F 67 °F  
Max Temperature 85 °F 78 °F 96 °F (1953)
Min Temperature 70 °F 56 °F 38 °F (1976)
Degree Days  
Heating Degree Days 0 2  
Month to date heating degree days 7 31  
Since 1 June heating degree days 46 112  
Since 1 July heating degree days 24 46  
Cooling Degree Days 13 3  
Month to date cooling degree days 191 143  
Year to date cooling degree days 520 474  
Since 1 June cooling degree days 472 442  
Growing Degree Days 27 (Base 50)    
Moisture  
Dew Point 66 °F    
Average Humidity 71    
Maximum Humidity 84    
Minimum Humidity 58    
Precipitation  
Precipitation 0.07 in 0.11 in 0.85 in (1955)
Month to date precipitation 3.82 3.07  
Year to date precipitation 26.99 20.45  
Snow  
Snow 0.00 in 0.00 in 0.00 in ()
Month to date snowfall 0.0 0.0  
Since 1 June snowfall 0.0 0.0  
Since 1 July snowfall 0.0 0.0  
Snow Depth 0.00 in    
Sea Level Pressure  
Sea Level Pressure 29.89 in    
Wind  
Wind Speed 9 mph (SSW)    
Max Wind Speed 18 mph    
Max Gust Speed 26 mph    
Visibility 10 miles    
Events Rain , Thunderstorm    
T = Trace of Precipitation, MM = Missing Value Source: NWS Daily Summary

Daily Weather History Graph

Daily Weather History Graph

Search for Another Location

Airport or City:

Trip Planner

Search our weather history database for the weather conditions in past years. The results will help you decide how hot, cold, wet, or windy it might be!

Date:

Astronomy

Aug. 30, 2014 Rise Set
Actual Time 6:57 AM EDT 8:13 PM EDT
Civil Twilight 6:27 AM EDT 8:42 PM EDT
Nautical Twilight 5:52 AM EDT 9:17 PM EDT
Astronomical Twilight 5:15 AM EDT 9:54 PM EDT
Moon 11:52 AM EDT (8/30) 10:38 PM EDT (8/30)
Length of Visible Light 14h 14m
Length of Day
13h 15m
Waxing Crescent, 23% of the Moon is Illuminated
Aug 30
Waxing Crescent
Sep 2
First Quarter
Sep 8
Full
Sep 15
Last Quarter
Sep 24
New

Hourly Weather History & Observations

Time (EDT) Temp. Heat Index Dew Point Humidity Pressure Visibility Wind Dir Wind Speed Gust Speed Precip Events Conditions
12:53 AM 70.0 °F - 57.9 °F 65% 30.00 in 10.0 mi South 9.2 mph - N/A   Clear
1:53 AM 71.1 °F - 60.1 °F 68% 29.97 in 10.0 mi SSE 9.2 mph - N/A   Clear
2:53 AM 71.1 °F - 61.0 °F 70% 29.95 in 10.0 mi South 8.1 mph - N/A   Clear
3:53 AM 73.4 °F - 60.8 °F 65% 29.95 in 10.0 mi South 8.1 mph - N/A   Clear
4:53 AM 73.9 °F - 62.1 °F 66% 29.93 in 10.0 mi South 9.2 mph - N/A   Clear
5:53 AM 73.0 °F - 62.1 °F 68% 29.93 in 10.0 mi South 9.2 mph - N/A   Clear
6:53 AM 73.0 °F - 62.1 °F 68% 29.92 in 10.0 mi South 8.1 mph - N/A   Clear
7:53 AM 73.9 °F - 63.0 °F 68% 29.92 in 10.0 mi South 8.1 mph - N/A   Clear
8:53 AM 75.9 °F - 64.0 °F 67% 29.91 in 10.0 mi South 11.5 mph - N/A   Clear
9:53 AM 78.1 °F - 64.9 °F 64% 29.92 in 10.0 mi SSW 11.5 mph - N/A   Mostly Cloudy
10:53 AM 78.1 °F - 66.9 °F 68% 29.92 in 10.0 mi SSW 6.9 mph - N/A   Mostly Cloudy
11:53 AM 80.1 °F 82.3 °F 66.9 °F 64% 29.91 in 10.0 mi SSW 9.2 mph - N/A   Partly Cloudy
12:53 PM 82.0 °F 84.9 °F 68.0 °F 62% 29.90 in 10.0 mi SSW 12.7 mph 18.4 mph N/A   Mostly Cloudy
1:53 PM 79.0 °F - 69.1 °F 72% 29.89 in 10.0 mi South 11.5 mph - 0.00 in   Mostly Cloudy
2:53 PM 82.0 °F 85.5 °F 69.1 °F 65% 29.88 in 10.0 mi SSW 10.4 mph - N/A   Clear
3:53 PM 84.0 °F 87.0 °F 68.0 °F 58% 29.85 in 10.0 mi SSW 13.8 mph 21.9 mph N/A   Partly Cloudy
4:53 PM 84.0 °F 87.0 °F 68.0 °F 58% 29.83 in 10.0 mi SSW 12.7 mph 20.7 mph N/A   Partly Cloudy
5:53 PM 84.0 °F 87.0 °F 68.0 °F 58% 29.81 in 10.0 mi SSW 10.4 mph 19.6 mph N/A   Scattered Clouds
6:53 PM 82.9 °F 85.4 °F 66.9 °F 58% 29.81 in 10.0 mi SSW 9.2 mph 18.4 mph N/A   Mostly Cloudy
7:32 PM 79.0 °F - 69.1 °F 72% 29.85 in 2.5 mi SW 11.5 mph - 0.03 in Rain , Thunderstorm Thunderstorms and Rain
7:43 PM 77.0 °F - 69.1 °F 76% 29.84 in 9.0 mi SW 5.8 mph - 0.04 in   Scattered Clouds
7:53 PM 77.0 °F - 69.1 °F 76% 29.83 in 10.0 mi SW 5.8 mph - 0.04 in   Partly Cloudy
8:53 PM 75.9 °F - 69.1 °F 79% 29.85 in 10.0 mi SSW 5.8 mph - N/A   Mostly Cloudy
9:53 PM 75.9 °F - 68.0 °F 76% 29.88 in 8.0 mi SW 13.8 mph 23.0 mph 0.00 in Rain Light Rain
10:53 PM 73.4 °F - 68.0 °F 83% 29.88 in 10.0 mi SSW 5.8 mph - N/A   Partly Cloudy
11:53 PM 73.9 °F - 68.0 °F 82% 29.89 in 10.0 mi SSW 8.1 mph - N/A   Clear